This is the latest recevied weather packets stored in our database for station/object N6DZK. If no packets are shown the sender has not sent any weather packets the latest 10 day(s).
| Time | Temp. | Humidity | Pressure | Rain* | Wind** | Luminosity | Snow |
|---|---|---|---|---|---|---|---|
| 1777424962 | 22.22° C | 42% | 1017.3 hPa | 0 mm | - | 203 W/m² | - |
| 1777424658 | 22.22° C | 41% | 1017.7 hPa | 0 mm | - | 116 W/m² | - |
| 1777424353 | 22.78° C | 40% | 1017.4 hPa | 0 mm | - | 82 W/m² | - |
| 1777424049 | 22.78° C | 40% | 1017.3 hPa | 0 mm | - | 260 W/m² | - |
| 1777423746 | 22.78° C | 39% | 1017.4 hPa | 0 mm | - | 277 W/m² | - |
| 1777423442 | 22.78° C | 39% | 1017.1 hPa | 0 mm | - | 192 W/m² | - |
| 1777423137 | 23.33° C | 37% | 1017.3 hPa | 0 mm | - | 93 W/m² | - |
| 1777422832 | 23.33° C | 37% | 1017.2 hPa | 0 mm | - | 116 W/m² | - |
| 1777422528 | 23.33° C | 38% | 1017.3 hPa | 0 mm | - | 347 W/m² | - |
| 1777422223 | 23.33° C | 39% | 1017.3 hPa | 0 mm | - | 376 W/m² | - |
| 1777421923 | 23.33° C | 37% | 1017.3 hPa | 0 mm | - | 388 W/m² | - |
| 1777421618 | 23.89° C | 39% | 1017.2 hPa | 0 mm | - | 292 W/m² | - |
| 1777421313 | 24.44° C | 38% | 1017.3 hPa | 0 mm | - | 235 W/m² | - |
| 1777421011 | 24.44° C | 39% | 1017.2 hPa | 0 mm | - | 462 W/m² | - |
| 1777420706 | 24.44° C | 40% | 1017.2 hPa | 0 mm | - | 472 W/m² | - |
| 1777420403 | 25° C | 38% | 1017 hPa | 0 mm | - | 486 W/m² | - |
| 1777420099 | 25.56° C | 37% | 1017 hPa | 0 mm | - | 504 W/m² | - |
| 1777419796 | 25° C | 35% | 1017.1 hPa | 0 mm | - | 531 W/m² | - |
| 1777419494 | 24.44° C | 35% | 1017.1 hPa | 0 mm | - | 555 W/m² | - |
| 1777419192 | 24.44° C | 35% | 1017.1 hPa | 0 mm | - | 577 W/m² | - |
| 1777418889 | 25° C | 36% | 1017 hPa | 0 mm | - | 606 W/m² | - |
| 1777418584 | 25° C | 36% | 1017.1 hPa | 0 mm | - | 621 W/m² | - |
| 1777418281 | 24.44° C | 36% | 1017.1 hPa | 0 mm | - | 638 W/m² | - |
| 1777417976 | 24.44° C | 35% | 1017.1 hPa | 0 mm | - | 671 W/m² | - |
| 1777417672 | 25° C | 35% | 1017.2 hPa | 0 mm | - | 686 W/m² | - |
* Rain latest hour (hover to see other rain measurements)
** Current wind speed in m/s (hover to see current wind gust speed)